FW7881 Weather Reports


Display with metric or nautical units.
time (UTC)temp
F
wind
direction
speed
MPH
gust
MPH
rain 1hr
in
rain 24hr
in
rain mn
in
humidity
%
barometer
mb
20260904051558 78 0 0.0 0.0 0.00 0.04 0.00 83 1009.5
20260904050058 78 0 0.0 0.0 0.00 0.04 0.00 83 1009.4
20260904044557 78 0 0.0 2.0 0.00 0.04 0.04 83 1009.3
20260904043054 78 0 0.0 1.0 0.00 0.04 0.04 82 1009.2
20260904041552 78 218 0.0 2.0 0.00 0.04 0.04 82 1009.2
20260904040103 79 200 1.0 3.0 0.00 0.04 0.04 81 1009.1
20260904034555 79 193 1.0 2.0 0.00 0.04 0.04 80 1009.2
20260904033051 79 226 0.0 4.0 0.00 0.04 0.04 80 1009.1
20260904031559 80 266 0.0 3.0 0.00 0.04 0.04 79 1009.2
20260904030055 80 210 1.0 4.0 0.00 0.04 0.04 79 1009.1
20260904024600 80 200 1.0 2.0 0.00 0.04 0.04 79 1009.1
20260904023051 80 113 0.0 2.0 0.00 0.04 0.04 78 1009.1
20260904021559 81 0 0.0 0.0 0.00 0.04 0.04 76 1009.0
20260904020057 81 217 0.0 3.0 0.00 0.04 0.04 75 1009.1
20260904014555 82 164 2.0 5.0 0.00 0.04 0.04 75 1009.0
20260904013111 82 190 3.0 4.0 0.00 0.04 0.04 74 1008.8
20260904011550 82 221 1.0 5.0 0.00 0.04 0.04 73 1008.6
20260904010056 83 200 3.0 5.0 0.00 0.04 0.04 72 1008.5
20260904004556 83 189 1.0 3.0 0.00 0.04 0.04 72 1008.4
20260904003100 84 185 2.0 5.0 0.00 0.04 0.04 71 1008.4
20260904001609 84 226 3.0 9.0 0.00 0.04 0.04 70 1008.6
20260904000056 84 169 3.0 8.0 0.00 0.04 0.04 69 1008.7
20260903234557 85 203 4.0 9.0 0.00 0.04 0.04 68 1008.8
20260903233100 85 198 4.0 8.0 0.00 0.04 0.04 67 1008.6
20260903231607 85 179 4.0 11.0 0.00 0.04 0.04 66 1008.2
20260903230057 86 212 6.0 12.0 0.00 0.04 0.04 64 1007.8
20260903224554 86 200 5.0 11.0 0.00 0.04 0.04 63 1007.9
20260903223059 86 210 5.0 12.0 0.00 0.04 0.04 63 1008.0
20260903221557 86 196 6.0 14.0 0.00 0.04 0.04 62 1008.1
20260903220100 86 223 5.0 19.0 0.00 0.04 0.04 64 1008.1
20260903214556 86 191 8.0 15.0 0.00 0.04 0.04 63 1008.1
20260903213111 85 186 3.0 14.0 0.00 0.04 0.04 64 1008.3
20260903211557 85 181 5.0 13.0 0.00 0.04 0.04 65 1008.6
20260903210058 84 189 4.0 14.0 0.00 0.04 0.04 67 1008.2
20260903204553 84 205 4.0 14.0 0.00 0.04 0.04 64 1008.9
20260903203100 85 143 6.0 13.0 0.00 0.04 0.04 61 1008.8
20260903201559 85 173 4.0 14.0 0.00 0.04 0.04 62 1008.9
20260903200053 86 176 7.0 13.0 0.00 0.04 0.04 62 1009.1
20260903194559 85 179 5.0 13.0 0.00 0.04 0.04 63 1009.1
20260903193056 85 186 7.0 15.0 0.00 0.04 0.04 68 1009.3
20260903191552 83 147 2.0 4.0 0.00 0.04 0.04 75 1009.0
20260903190057 81 141 1.0 3.0 0.04 0.04 0.04 80 1009.4
20260903184605 78 33 1.0 3.0 0.04 0.04 0.04 83 1009.8
20260903183058 77 117 0.0 2.0 0.04 0.04 0.04 84 1009.8
20260903181557 77 0 0.0 2.0 0.04 0.04 0.04 82 1009.9
20260903180108 79 248 0.0 5.0 0.00 0.00 0.00 75 1009.6
20260903174557 80 217 0.0 3.0 0.00 0.00 0.00 73 1009.8
20260903173054 80 217 2.0 4.0 0.00 0.00 0.00 72 1009.7
20260903171554 81 217 2.0 9.0 0.00 0.00 0.00 73 1010.1
20260903170057 79 172 1.0 4.0 0.00 0.00 0.00 77 1010.6
20260903164556 78 231 2.0 5.0 0.00 0.00 0.00 76 1010.7
20260903163130 78 196 4.0 6.0 0.00 0.00 0.00 75 1010.6
20260903161550 78 148 2.0 6.0 0.00 0.00 0.00 75 1010.4
20260903160057 79 174 2.0 8.0 0.00 0.00 0.00 72 1010.4
20260903154600 79 129 1.0 6.0 0.00 0.00 0.00 72 1010.3
20260903153055 79 199 3.0 8.0 0.00 0.00 0.00 71 1010.3
20260903151550 78 188 1.0 7.0 0.00 0.00 0.00 72 1010.6
20260903144558 81 141 1.0 3.0 0.00 0.00 0.00 69 1010.1
20260903143056 79 130 1.0 4.0 0.00 0.00 0.00 72 1010.2
20260903141554 78 199 2.0 6.0 0.00 0.00 0.00 73 1010.3
20260903134618 75 194 3.0 6.0 0.00 0.00 0.00 76 1010.6
20260903133058 75 120 0.0 2.0 0.00 0.00 0.00 78 1010.8
20260903131557 75 169 2.0 3.0 0.00 0.00 0.00 79 1010.7
20260903130105 75 203 0.0 4.0 0.00 0.00 0.00 79 1010.5
20260903124601 75 172 2.0 6.0 0.00 0.00 0.00 79 1010.5
20260903123058 75 190 2.0 5.0 0.00 0.00 0.00 79 1009.9
20260903121555 75 206 1.0 5.0 0.00 0.00 0.00 79 1009.7
20260903120119 75 170 3.0 7.0 0.00 0.00 0.00 81 1009.9
20260903114605 75 240 3.0 10.0 0.00 0.00 0.00 82 1010.6
20260903113056 74 183 2.0 7.0 0.00 0.00 0.00 85 1010.6
20260903111550 74 171 1.0 3.0 0.00 0.00 0.00 86 1010.4
20260903104556 73 184 1.0 5.0 0.00 0.00 0.00 87 1010.5
20260903103056 72 202 2.0 4.0 0.00 0.00 0.00 87 1010.7
20260903101552 73 178 0.0 3.0 0.00 0.00 0.00 87 1010.3
20260903100059 72 0 0.0 2.0 0.00 0.00 0.00 87 1010.3
20260903094559 72 0 0.0 1.0 0.00 0.00 0.00 88 1010.3
20260903093057 72 0 0.0 1.0 0.00 0.00 0.00 87 1010.3
20260903091600 72 0 0.0 1.0 0.00 0.00 0.00 87 1010.4
20260903090101 72 0 0.0 1.0 0.00 0.00 0.00 87 1010.1
20260903084558 72 0 0.0 1.0 0.00 0.00 0.00 87 1010.1
20260903083056 72 0 0.0 0.0 0.00 0.00 0.00 87 1010.2
20260903081552 72 0 0.0 1.0 0.00 0.00 0.00 86 1010.4
20260903080052 73 0 0.0 1.0 0.00 0.00 0.00 86 1010.3
20260903074634 73 0 0.0 1.0 0.00 0.03 0.00 85 1010.5
20260903073106 73 0 0.0 1.0 0.00 0.03 0.00 85 1010.6
20260903071555 74 20 0.0 1.0 0.00 0.03 0.00 85 1010.7
20260903070113 74 0 0.0 1.0 0.00 0.03 0.00 84 1010.7
20260903064556 74 30 0.0 1.0 0.00 0.04 0.00 84 1010.8
20260903063106 74 0 0.0 1.0 0.00 0.04 0.00 84 1010.8
20260903061600 75 0 0.0 1.0 0.00 0.04 0.00 83 1010.8
20260903060059 75 0 0.0 1.0 0.00 0.04 0.00 83 1011.0
20260903054602 75 0 0.0 1.0 0.00 0.04 0.00 82 1011.0
20260903053056 76 20 0.0 1.0 0.00 0.04 0.00 82 1010.8